sat.trackr.live / text

‹ back to catalog

STARLINK-3343

NORAD 50822 · 2022-001V

PAYLOAD ACTIVE UNKNOWN

§ Identity

Operator
Country
US
Launch date
2022-01-06
Launch site
AFETR
Launch vehicle
Mass (kg)
RCS (m²)

Purposes: comms

External: N2YO · Heavens-Above · Gunter

§ Orbital elements

Epoch: 2026-09-20T00:00:39.895200Z

Period
94.01 min
Inclination
53.1607°
Eccentricity
0.0000963
Mean motion
15.31701714 rev/d
Perigee alt
470.1 km
Apogee alt
471.4 km
Semi-major
6,848.9 km
B*
1.5130e-5
RAAN
6.0984°
Arg perigee
93.4131°
Mean anomaly
266.6981°
Rev number
25,988

§ Raw data

STARLINK-33431 50822U 22001V   26263.00046175  .00000105  00000+0  15130-4 0  99932 50822  53.1607   6.0984 0000963  93.4131 266.6981 15.31701714259887

JSON: /api/v1/satellites/50822 · /tle

For live sub-satellite position, see the globe view (requires WebGL).

§ Visibility from observer

Set your observer location to see the next 7 days of passes ≥ 10°. The values pass through the URL so the page stays shareable.

No JS? Fill the form by hand. The geolocation button needs JavaScript.